CAPE
0 0 0 0 0 0 0 0 0 0 0 0 0 0 42 224 30 30 1595 1614 1706 1217 1154 1268 1245 1152 988 671 343 89 13 0 0 0 158 570 141 21 5 143 554 718 532 272 91 0 0 0 0
0 0 0 0 0 0 0 0 0 0 0 0 0 0 0 395 167 191 1326 1721 1434 1220 929 1104 1227 1075 906 557 220 59 9 0 0 0 279 706 234 65 143 328 579 818 605 242 62 0 0 0 0
0 0 0 0 0 0 0 0 0 0 0 0 0 0 0 675 112 901 1722 1687 1367 980 877 1094 1043 1028 870 532 175 67 10 0 0 1 258 580 384 81 195 443 635 631 559 278 83 0 0 0 0
0 0 0 0 0 0 0 0 0 0 0 0 0 0 877 1184 1165 1993 1814 1816 1184 943 1059 1274 1035 872 749 604 210 120 4 0 0 15 222 465 378 173 152 198 257 225 141 71 0 0 0 0 0
0 0 0 0 0 0 0 0 0 0 0 0 0 0 1053 1209 1640 2166 1915 1782 1126 1306 1218 1051 1273 793 647 628 286 168 13 0 1 45 216 429 382 338 229 144 54 13 0 0 0 0 0 0 0
0 0 0 0 0 0 0 0 0 0 0 0 0 0 634 1326 1819 2467 2118 1739 1342 1431 1326 1177 1348 972 739 667 329 193 23 5 20 83 236 457 456 423 373 342 249 135 14 0 0 0 0 0 0
0 0 0 0 0 0 0 0 0 0 0 0 0 0 476 1208 1483 2355 2184 1590 1655 1536 1217 1142 1294 1221 867 719 375 157 22 25 32 73 194 443 447 276 160 113 77 54 13 0 0 0 0 0 0
0 0 0 0 0 0 0 0 0 0 0 0 0 0 356 1241 1148 2028 2053 1863 1744 1472 1223 867 1284 1243 1182 817 477 96 25 48 45 65 158 399 356 179 44 12 4 0 0 0 0 0 0 0 0
0 0 0 0 0 0 0 0 0 0 0 0 0 0 1219 1250 1322 1628 1992 1844 1677 1350 1156 753 1168 1145 1053 772 485 95 44 25 65 157 164 166 86 45 12 0 0 0 0 0 0 0 0 0 0
0 0 0 0 0 0 0 0 0 0 0 0 0 37 1233 1299 1348 1635 2104 2014 1730 1363 988 619 920 980 810 770 482 108 263 204 119 147 79 0 0 0 0 0 1 0 0 0 0 0 0 0 0
0 0 0 0 0 0 0 0 0 0 0 0 0 0 16 687 908 1560 1928 2059 1839 1478 814 484 681 923 903 875 542 219 405 176 65 21 0 0 6 9 0 0 0 0 0 0 0 0 0 0 0
0 0 0 0 0 0 0 0 0 0 0 0 0 0 0 0 300 715 1766 2033 1687 1403 923 445 445 665 767 632 488 326 151 21 0 0 0 0 23 0 15 0 0 0 0 0 0 0 0 0 0
0 0 0 0 0 0 0 0 0 0 0 0 0 0 0 0 0 88 497 1335 1489 1165 725 300 222 180 423 311 281 191 62 11 0 3 0 0 44 1 15 4 0 0 0 0 0 0 0 0 18
0 0 0 0 0 0 0 0 0 0 0 0 0 0 0 0 0 0 7 573 1632 1009 566 193 92 186 218 103 85 21 0 0 0 23 0 0 166 33 27 36 0 0 0 0 0 0 10 134 503
0 0 0 0 0 0 0 0 0 0 0 0 0 0 0 0 0 0 0 1 1249 1136 339 150 45 213 101 48 16 1 0 0 0 36 0 28 474 142 50 32 1 0 0 0 0 306 286 635 354
0 0 0 0 0 0 0 0 0 0 0 0 0 0 0 0 0 0 0 0 195 1098 535 156 374 252 84 60 29 3 0 11 3 64 0 98 391 224 93 2 0 0 0 0 2 147 216 214 76
0 0 0 0 0 0 0 0 0 0 0 0 0 0 0 0 0 0 0 0 434 1222 580 293 445 596 430 215 229 187 49 149 32 166 12 322 262 151 5 3 0 0 13 381 361 396 162 8 3
0 0 0 0 0 0 0 0 0 0 0 0 0 0 0 0 0 0 0 0 819 1091 491 390 90 630 633 744 825 926 545 622 434 474 276 338 152 413 123 0 0 75 309 640 225 10 0 0 0
0 0 0 0 0 0 0 0 0 0 0 0 0 0 0 0 0 0 0 0 819 1115 595 192 369 74 4 222 1089 1052 999 756 959 761 646 602 411 440 37 542 574 346 363 378 227 0 0 0 0
0 0 0 0 0 2 0 0 0 0 0 0 0 0 0 0 0 0 0 0 868 853 565 333 166 51 46 477 1203 1437 910 1353 1289 1172 973 852 718 287 453 629 398 277 117 0 0 0 0 0 0
0 7 4 0 10 1 17 0 0 0 0 0 0 0 0 0 0 0 0 0 367 708 377 223 259 278 862 1107 1294 1466 1197 1332 1366 1363 1074 1007 536 625 633 557 213 15 0 0 0 0 0 0 0
1 11 6 6 6 0 5 0 0 0 0 0 1 0 0 0 0 0 0 0 136 1235 503 200 32 122 727 947 1167 1330 1298 1509 1494 1209 973 721 577 600 442 214 18 0 0 0 0 0 0 0 0
0 0 0 0 0 0 2 19 0 0 0 0 0 13 8 0 0 0 0 0 4 1483 1547 1259 510 0 110 164 886 1314 1201 1454 1257 1028 632 512 471 395 141 15 0 0 0 0 0 0 0 0 0
0 4 0 0 8 2 0 0 0 0 0 0 0 9 1 7 1 0 0 0 113 2346 1930 1883 1251 419 911 150 279 801 1348 1441 1198 767 592 504 299 124 11 0 0 0 0 0 0 0 0 0 0
0 1 0 2 0 0 0 0 0 0 0 0 0 0 1 6 3 0 0 0 202 1808 1766 1768 1979 1542 1311 1172 1026 1176 1404 1359 857 594 501 380 169 11 0 0 0 0 0 0 0 0 0 0 0
0 0 1 0 2 0 0 0 0 0 2 9 8 46 19 0 18 0 0 0 8 1472 1610 1693 1887 1616 1379 1083 1017 1110 1136 760 526 416 235 119 38 0 0 0 0 0 0 0 0 0 0 0 0
0 0 3 4 0 0 0 0 0 1 0 1 63 36 14 0 6 2 0 0 0 1115 1213 1696 1746 1454 1175 904 815 787 572 372 335 256 91 19 1 0 0 0 0 0 0 0 0 0 0 0 0
0 0 0 0 0 0 0 0 9 63 57 8 12 10 0 0 4 0 0 0 0 388 1704 1643 1324 1214 1116 875 644 672 358 209 118 73 36 2 0 0 0 0 0 0 0 0 0 0 0 0 0
0 0 5 2 14 8 0 0 0 0 0 0 0 0 0 0 8 11 0 0 0 920 1854 1428 1082 821 982 604 634 393 206 47 26 1 0 0 0 0 0 0 0 0 0 0 0 0 0 0 0
0 0 1 8 0 0 0 0 0 0 6 0 0 0 0 1 13 0 0 0 0 1009 1658 1153 868 627 812 787 488 276 62 24 5 0 0 0 0 0 0 0 0 0 0 0 0 0 0 0 0
CIN
0 0 0 0 0 0 0 0 0 0 0 0 0 0 -77 -53 -85 -43 -251 -292 -340 -414 -429 -362 -358 -367 -383 -411 -495 -648 -736 0 0 0 -464 -230 -433 -541 -88 -397 -171 -144 -178 -219 -305 0 0 0 0
0 0 0 0 0 0 0 0 0 0 0 0 0 0 0 -124 -205 -253 -349 -330 -389 -443 -473 -399 -379 -383 -373 -454 -531 -659 -716 0 0 0 -337 -141 -360 -470 -390 -260 -159 -117 -154 -226 -331 0 0 0 0
0 0 0 0 0 0 0 0 0 0 0 0 0 0 0 -118 -223 -218 -346 -396 -450 -469 -474 -416 -413 -399 -394 -449 -560 -627 -705 0 0 -298 -321 -135 -221 -445 -318 -186 -140 -138 -150 -213 -317 0 0 0 0
0 0 0 0 0 0 0 0 0 0 0 0 0 0 -61 -96 -152 -256 -361 -368 -414 -472 -445 -397 -413 -415 -440 -433 -538 -581 -700 0 0 -380 -332 -157 -191 -322 -320 -270 -239 -252 -282 -340 -4 0 0 0 0
0 0 0 0 0 0 0 0 0 0 0 0 0 0 -71 -60 -169 -296 -349 -378 -414 -423 -401 -424 -361 -446 -459 -434 -518 -539 -734 0 -179 -543 -341 -164 -159 -189 -235 -287 -366 -457 0 0 0 0 0 0 0
0 0 0 0 0 0 0 0 0 0 0 0 0 0 -64 -123 -164 -260 -327 -371 -440 -405 -386 -372 -300 -389 -424 -421 -509 -527 -726 -761 -670 -519 -318 -170 -135 -149 -165 -185 -220 -297 -439 0 0 0 0 0 0
0 0 0 0 0 0 0 0 0 0 0 0 0 0 -65 -65 -92 -140 -218 -304 -382 -368 -391 -366 -310 -292 -371 -388 -493 -550 -726 -726 -652 -539 -350 -182 -146 -216 -263 -312 -341 -368 -474 0 0 0 0 0 0
0 0 0 0 0 0 0 0 0 0 0 0 0 0 -44 -41 -66 -83 -127 -296 -309 -329 -371 -424 -308 -281 -263 -350 -443 -581 -660 -647 -640 -560 -391 -218 -199 -276 -368 -430 -440 0 0 0 0 0 0 0 0
0 0 0 0 0 0 0 0 0 0 0 0 0 0 -44 -41 -19 -41 -77 -205 -291 -285 -355 -437 -320 -300 -295 -361 -440 -572 -585 -618 -588 -436 -395 -335 -385 -415 -468 0 0 0 0 0 0 0 0 0 0
0 0 0 0 0 0 0 0 0 0 0 0 0 -9 -50 -16 -17 -24 -57 -126 -223 -293 -361 -442 -364 -342 -367 -356 -453 -573 -438 -459 -478 -437 -507 0 0 0 0 0 -143 0 0 0 0 0 0 0 0
0 0 0 0 0 0 0 0 0 0 0 0 0 0 -55 -40 -15 -19 -14 -102 -207 -288 -361 -454 -402 -305 -297 -289 -368 -493 -376 -442 -535 -600 0 0 -232 -358 -1 0 0 0 0 0 0 0 0 0 0
0 0 0 0 0 0 0 0 0 0 0 0 0 0 0 0 -30 -17 -16 -43 -152 -285 -350 -458 -407 -310 -252 -281 -353 -408 -466 -613 0 0 0 0 -501 0 -485 0 0 0 0 0 0 0 0 0 0
0 0 0 0 0 0 0 0 0 0 0 0 0 0 0 0 0 -30 -17 -28 -139 -239 -356 -470 -473 -426 -338 -364 -388 -467 -545 -633 0 -687 0 -45 -445 -153 -483 -189 0 0 0 0 0 0 0 0 -189
0 0 0 0 0 0 0 0 0 0 0 0 0 0 0 0 0 0 -17 -35 -100 -166 -318 -445 -441 -514 -428 -504 -528 -610 0 0 0 -568 0 -222 -307 -426 -450 -374 0 0 0 0 0 0 -174 -160 -71
0 0 0 0 0 0 0 0 0 0 0 0 0 0 0 0 0 0 0 -6 -95 -167 -248 -325 -339 -345 -439 -486 -505 -587 0 0 0 -515 0 -503 -190 -281 -374 -394 -259 0 0 0 0 -111 -109 -45 -77
0 0 0 0 0 0 0 0 0 0 0 0 0 0 0 0 0 0 0 0 -8 -151 -141 -218 -63 -176 -253 -378 -444 -254 0 -489 -219 -483 -8 -446 -227 -267 -346 -310 0 0 0 0 -29 -124 -93 -91 -78
0 0 0 0 0 0 0 0 0 0 0 0 0 0 0 0 0 0 0 0 -87 -130 -205 -120 -175 -98 -51 -126 -123 -200 -392 -344 -429 -383 -556 -326 -291 -316 -225 -148 0 0 -127 -83 -67 -63 -118 -92 -104
0 0 0 0 0 -3 0 0 0 0 0 0 0 0 0 0 0 0 0 0 -92 -143 -182 -220 -316 -197 -69 -22 -24 -17 -70 -175 -291 -228 -337 -274 -321 -183 -276 0 0 -217 -125 -46 -128 -60 0 0 0
0 0 0 0 0 0 0 0 0 0 0 0 0 0 0 0 0 0 0 0 -77 -135 -175 -219 -179 -254 -64 -35 -5 -7 -13 -99 -126 -170 -175 -174 -224 -141 -321 -119 -102 -141 -114 -96 -95 0 0 0 0
0 0 0 0 0 -3 0 0 0 0 0 0 0 0 0 0 0 0 0 0 -68 -115 -156 -248 -336 -325 -371 -65 -8 -17 -71 -21 -75 -112 -102 -126 -91 -174 -150 -89 -145 -197 -206 0 0 0 0 0 0
0 -1 -5 -3 -7 -7 -16 0 0 0 0 0 0 0 0 0 0 0 0 0 -101 -127 -186 -233 -236 -201 -116 -39 -18 -13 -21 -18 -65 -75 -76 -52 -103 -127 -149 -129 -224 -184 0 0 0 0 0 0 0
-4 -4 -9 -9 -5 0 -35 0 0 0 0 -30 -97 0 0 0 0 0 0 0 -111 -61 -133 -231 -304 -245 -68 -66 -81 -39 -15 -12 -57 -67 -61 -121 -165 -173 -198 -226 -178 0 0 0 0 0 0 0 0
0 0 0 0 -1 -1 -2 -8 0 0 0 0 -7 -108 -110 0 0 0 0 0 -20 -26 -54 -122 -234 0 -276 -271 -69 -20 -19 -31 -83 -74 -123 -200 -214 -225 -281 -361 0 0 0 0 0 0 0 0 0
0 -11 0 0 -8 -2 0 -12 0 0 0 0 0 -73 -54 -86 -28 0 0 0 -14 -47 -61 -81 -128 -195 -17 -144 -0 -18 -26 -62 -97 -154 -198 -206 -278 -352 -402 0 0 0 0 0 0 0 0 0 0
0 0 0 -2 -23 0 0 0 0 0 0 0 0 0 -13 -75 -109 0 0 0 -7 -33 -49 -58 -70 -44 -23 -14 -18 -19 -56 -81 -145 -185 -257 -274 -350 -442 0 0 0 0 0 0 0 0 0 0 0
0 0 -1 0 -8 -0 -4 0 0 0 -165 -141 -109 -48 -36 0 -89 0 0 0 -14 -10 -32 -38 -50 -47 -27 -34 -29 -49 -91 -147 -212 -278 -354 -398 -461 0 0 0 0 0 0 0 0 0 0 0 0
0 0 -5 -2 0 0 0 0 0 -8 0 -94 -103 -85 -80 -11 -98 -81 0 0 0 -9 -13 -30 -36 -33 -59 -56 -36 -58 -145 -206 -161 -283 -434 -489 -457 0 0 0 0 0 0 0 0 0 0 0 0
0 -2 -2 0 0 0 0 0 -26 -73 -127 -75 -167 -120 0 0 -58 0 0 0 0 -25 -20 -25 -42 -44 -45 -98 -37 -81 -181 -161 -181 -344 -421 -230 0 0 0 0 0 0 0 0 0 0 0 0 0
0 0 -4 -0 -1 -4 0 0 0 0 -31 0 0 0 0 -44 -133 -57 0 0 0 -11 -21 -26 -56 -92 -34 -64 -59 -126 -136 -282 -305 -42 0 0 0 0 0 0 0 0 0 0 0 0 0 0 0
0 0 -10 -1 0 0 0 0 0 0 -31 0 0 0 0 -19 -112 0 0 0 0 -18 -16 -19 -120 -116 -89 -23 -92 -123 -352 -347 -383 0 0 0 0 0 0 0 0 0 0 0 0 0 0 0 0
Wind_Speed
25 24 22 21 25 26 34 31 34 35 35 28 27 21 14 16 17 17 5 5 10 13 16 13 13 12 13 12 11 10 9 10 12 11 12 12 12 13 14 14 14 14 14 15 15 15 15 15 16
23 22 20 24 27 32 37 37 39 38 35 34 34 23 24 19 13 8 9 11 14 13 11 14 13 13 13 12 11 11 10 10 12 12 10 11 12 13 13 13 13 12 13 14 15 16 16 16 16
23 17 21 22 29 33 37 33 37 38 36 39 39 20 21 11 8 4 8 13 10 10 9 9 13 13 12 11 12 12 11 10 11 12 12 11 12 12 12 12 12 12 12 13 14 15 15 15 16
19 18 23 29 32 30 33 38 40 42 39 35 29 20 17 7 2 1 11 9 9 9 9 10 10 13 13 11 10 11 11 10 11 12 11 11 12 12 13 12 12 12 12 13 13 14 14 15 15
21 23 28 32 36 39 41 41 40 43 38 37 31 22 14 5 4 8 8 8 9 7 10 8 9 10 13 12 11 11 11 11 11 11 11 10 11 12 12 12 12 12 12 12 12 13 13 14 14
24 22 33 36 41 40 40 40 40 42 40 38 33 25 17 1 6 4 5 4 7 7 9 8 7 8 12 12 11 11 11 11 10 10 10 11 11 11 11 11 11 11 11 12 11 12 13 13 13
26 33 38 41 45 45 40 37 38 39 40 40 33 28 12 4 3 5 4 4 4 7 8 7 7 7 10 12 12 11 11 11 10 10 10 10 11 10 11 11 10 10 11 11 11 11 12 12 12
23 33 43 43 44 48 40 42 38 38 40 39 36 29 17 5 3 5 4 5 3 4 8 8 7 8 8 10 11 11 12 12 12 10 10 10 10 10 11 10 10 11 11 11 10 11 11 11 11
26 37 44 43 45 47 43 44 41 38 36 35 37 25 7 3 2 4 6 6 7 6 8 10 9 9 9 9 10 11 11 11 10 9 10 11 10 11 11 11 11 10 10 10 10 10 10 10 9
24 38 41 40 44 46 45 45 41 40 37 33 30 16 12 6 6 8 11 12 11 9 10 13 12 11 11 10 10 10 9 8 7 7 10 12 13 11 11 10 10 10 9 9 10 9 9 9 9
27 36 37 41 42 44 46 48 41 41 42 34 33 30 24 18 16 13 14 16 15 12 11 14 14 12 12 10 10 9 8 7 7 8 11 13 12 10 9 9 8 9 9 9 9 9 8 8 8
34 33 33 35 36 42 45 44 47 44 48 38 37 34 33 27 22 21 18 17 20 17 14 15 17 15 12 14 12 11 8 7 6 9 14 12 7 8 10 8 8 9 9 8 8 8 7 7 7
31 31 32 32 33 35 40 45 45 49 46 41 40 37 34 33 26 28 24 18 21 23 19 17 19 18 15 15 15 11 8 8 7 8 13 13 4 5 6 8 9 9 9 8 7 6 6 6 8
28 31 33 33 35 36 37 39 41 55 48 43 41 40 37 36 31 29 31 23 18 27 24 19 20 20 17 15 14 12 10 10 8 8 8 7 4 5 6 4 5 5 6 6 6 5 5 10 13
34 35 36 34 32 36 33 42 43 45 49 49 48 43 41 40 37 32 30 29 19 19 20 21 23 22 19 17 16 15 12 12 10 8 7 4 4 1 2 5 5 6 6 7 8 12 11 12 14
35 34 35 32 30 37 24 44 41 40 44 51 50 50 45 45 41 36 33 33 20 18 20 22 27 22 22 20 19 19 15 15 11 8 7 4 2 1 4 4 7 8 12 11 13 13 12 14 14
28 31 39 38 19 18 22 30 33 35 38 45 48 49 49 50 47 41 38 33 17 15 18 24 26 24 24 24 22 21 17 17 13 7 6 5 3 3 2 5 6 7 11 12 12 15 14 15 17
32 37 39 41 38 36 27 42 31 35 29 38 45 50 52 51 50 46 42 37 18 16 19 22 20 29 25 26 26 22 18 9 8 5 7 6 4 3 3 6 9 7 11 13 13 14 16 17 17
40 42 41 42 40 40 41 23 17 27 16 36 41 47 52 53 52 50 46 40 20 20 19 18 20 20 23 26 33 28 16 11 10 7 5 5 4 4 4 8 9 9 11 13 13 13 15 20 19
16 18 23 30 42 41 44 43 32 19 29 16 30 40 47 50 52 53 50 46 26 24 23 21 23 25 23 28 28 31 23 19 10 8 7 5 5 6 5 8 10 12 12 15 14 13 14 17 21
44 38 29 24 43 34 42 50 44 35 27 27 16 23 48 52 52 49 55 53 32 31 27 24 24 27 27 24 37 29 25 20 11 9 7 4 5 5 7 8 11 12 13 13 14 15 16 15 14
44 32 40 42 36 22 26 38 21 27 37 23 24 17 24 49 52 53 48 54 43 34 30 27 28 30 30 33 35 25 28 17 10 9 6 3 4 6 8 8 11 12 12 12 15 16 16 16 18
43 38 38 40 34 43 29 31 44 26 28 22 22 27 23 51 51 51 52 52 48 38 33 28 29 26 28 24 39 28 30 18 12 9 6 3 4 7 9 10 11 12 12 14 15 16 17 18 19
41 38 35 35 30 29 25 21 40 19 20 19 21 18 22 53 56 48 50 45 41 38 37 32 29 30 29 29 60 27 21 18 15 11 7 2 3 6 8 10 11 11 13 14 17 17 17 18 19
29 28 31 30 23 25 23 20 23 21 20 16 17 20 40 50 56 52 52 49 37 39 39 36 32 30 28 30 25 23 19 17 15 11 7 3 2 5 7 10 11 12 14 14 16 16 17 18 19
32 24 26 33 30 27 26 28 29 25 35 26 40 34 44 48 51 50 51 50 38 41 40 37 35 33 31 30 25 22 19 17 14 10 6 2 4 7 9 9 10 12 13 15 16 17 18 19 20
26 21 20 28 29 33 31 36 43 47 47 40 28 29 37 41 46 48 52 51 45 42 44 38 35 33 30 31 26 22 19 16 12 10 4 2 4 10 9 9 10 11 13 15 16 17 18 18 20
13 15 12 12 16 19 23 30 24 29 25 25 30 31 24 33 42 48 54 56 47 44 42 37 33 31 30 29 26 19 15 11 13 8 6 7 9 10 10 9 10 11 13 15 17 17 18 20 21
5 8 7 3 6 8 10 9 15 22 25 30 30 33 31 28 36 42 54 61 50 44 42 38 33 30 32 31 27 22 16 14 11 8 8 10 11 11 10 9 10 11 13 14 16 16 18 20 21
18 9 8 6 4 7 10 19 20 36 29 25 34 34 33 29 31 31 51 61 49 47 43 37 33 31 33 29 26 23 19 16 12 12 11 12 13 10 8 9 10 12 13 14 15 16 18 20 21
Wind_Direction
302 293 296 298 282 278 268 271 262 256 259 279 300 302 309 324 305 312 28 44 88 102 112 116 115 110 109 106 104 99 88 81 80 79 81 77 78 77 81 80 76 72 64 56 53 50 40 32 28
300 297 297 286 277 272 268 264 260 247 237 264 301 304 293 303 309 334 50 108 111 114 115 116 119 116 114 112 109 103 96 90 88 86 83 77 80 80 82 80 75 68 62 56 51 49 47 41 40
302 303 289 285 276 270 272 274 268 262 273 282 301 302 298 298 327 12 78 106 110 119 123 125 121 121 120 117 115 110 104 98 94 91 89 80 80 82 81 78 73 69 63 59 53 48 47 45 45
308 301 289 278 274 278 275 271 269 266 274 280 306 304 314 314 291 122 110 104 106 127 135 130 131 125 124 124 123 118 112 107 101 98 94 86 84 83 83 79 75 73 65 60 57 53 53 50 46
302 292 280 279 276 274 269 270 272 269 276 277 295 301 304 318 77 128 132 117 125 135 137 147 141 141 128 134 131 126 121 116 109 104 100 93 89 85 83 81 77 72 65 63 57 55 55 49 54
293 291 279 276 275 275 272 268 270 271 271 275 285 298 306 49 127 171 134 134 124 148 144 142 161 152 135 138 137 134 129 124 117 112 107 102 96 87 81 78 75 68 64 64 55 56 58 57 67
285 282 277 277 274 272 274 274 274 270 272 269 282 287 298 309 126 170 174 155 127 147 151 167 191 159 144 141 141 140 137 131 125 120 115 110 104 93 86 82 75 68 67 66 61 64 68 72 75
285 284 277 275 276 273 276 274 279 282 278 277 273 275 282 255 166 167 185 183 191 184 173 179 176 171 167 157 148 146 142 134 130 126 122 117 109 99 93 83 75 77 80 75 70 73 78 85 84
293 279 276 276 276 276 277 277 277 288 284 284 280 261 249 230 192 197 217 218 223 219 201 188 181 170 191 178 163 150 148 143 137 133 127 122 113 107 102 93 87 83 81 74 72 79 85 82 76
287 282 280 282 280 278 277 276 280 281 279 277 295 269 241 239 244 229 231 232 224 213 215 195 194 184 178 196 178 169 162 164 158 145 134 127 123 115 108 99 89 83 77 77 82 82 81 63 58
293 284 288 283 281 280 279 275 278 274 265 273 280 283 262 254 260 246 240 231 221 210 212 208 203 197 194 197 201 190 168 170 165 150 139 133 124 118 98 91 82 82 82 80 80 74 73 55 47
299 292 289 287 286 281 279 280 272 270 262 274 277 283 267 271 257 256 248 238 232 219 211 206 205 206 207 212 210 210 185 180 183 153 144 140 127 111 115 97 94 98 96 92 77 79 64 48 38
309 307 304 299 294 290 285 277 274 267 266 270 272 276 273 269 277 264 252 251 234 228 221 211 199 215 211 212 223 209 199 200 209 169 148 143 150 115 105 100 94 99 98 92 79 84 62 45 33
316 310 304 299 293 291 288 283 280 264 266 267 268 270 272 265 269 279 265 250 231 240 233 219 209 209 209 211 217 212 202 206 190 203 178 151 274 135 117 88 99 93 91 88 84 74 58 24 24
304 306 297 294 297 289 291 280 274 270 265 263 262 267 268 264 263 272 271 267 241 233 229 226 226 223 212 221 219 227 221 218 213 209 196 176 272 121 20 21 81 39 50 40 36 27 30 23 21
298 298 295 301 296 282 293 278 276 276 273 263 260 259 264 261 260 266 271 264 278 223 224 231 231 226 225 225 225 226 225 229 225 221 203 185 237 116 347 355 346 348 339 349 353 3 8 11 10
305 301 283 263 308 295 297 291 289 281 278 266 259 257 257 259 257 261 265 266 268 223 205 206 219 228 231 227 232 232 231 232 239 231 187 169 155 117 53 10 359 4 352 1 8 6 12 5 1
299 291 287 285 286 294 305 269 281 288 283 272 264 260 256 255 253 256 260 265 258 222 206 215 230 222 232 238 232 233 232 210 212 193 156 157 153 113 53 357 350 14 10 13 14 15 10 2 356
271 281 267 289 291 293 291 298 285 300 294 280 273 261 256 253 251 253 256 259 254 233 222 212 199 183 195 244 228 229 223 212 213 193 171 146 144 120 54 1 11 11 9 7 14 16 6 360 356
263 293 252 250 293 291 288 250 289 283 289 264 280 268 260 257 250 249 251 251 245 233 223 223 210 207 198 217 224 228 228 237 217 187 174 148 125 108 26 27 14 15 11 6 10 16 8 8 360
288 296 300 286 294 296 292 259 287 286 283 283 254 274 261 256 251 249 247 244 244 233 225 217 209 206 198 208 221 228 230 235 220 178 173 176 123 62 45 27 16 15 14 16 23 18 10 12 33
261 306 300 298 305 267 301 255 266 292 283 283 278 257 265 254 249 248 249 239 239 230 224 219 206 209 228 225 228 218 224 218 204 189 196 148 84 50 39 29 24 24 35 24 19 25 34 45 44
259 303 300 299 301 295 297 295 251 296 287 277 244 272 276 250 248 247 247 240 238 228 220 220 217 211 208 221 221 207 219 218 202 186 169 117 55 46 39 37 41 41 30 29 50 41 39 39 44
299 305 304 300 300 274 297 289 249 266 252 266 271 248 243 238 240 247 244 243 235 226 219 217 213 207 211 190 187 188 190 186 182 186 173 152 54 41 42 40 40 39 42 50 52 38 28 29 28
329 319 308 305 281 274 301 294 260 309 296 270 266 274 259 231 237 242 239 237 239 222 222 220 219 215 206 206 193 208 190 184 180 182 184 169 65 42 47 51 60 54 63 59 45 32 28 25 23
316 317 310 306 308 306 304 296 299 301 292 292 280 288 243 244 239 237 237 234 235 223 220 219 221 219 217 208 204 202 191 197 197 192 189 158 77 66 66 68 60 63 62 47 38 36 34 31 26
325 307 309 304 300 298 297 302 296 283 272 273 283 283 260 248 240 237 236 232 231 226 224 219 219 219 216 208 204 198 200 195 182 199 172 135 88 86 80 74 69 61 50 40 39 36 34 30 23
288 321 300 314 325 315 314 307 322 309 303 299 273 258 283 243 231 241 232 228 231 230 224 218 215 212 205 200 200 183 175 188 208 183 164 124 99 97 90 84 72 53 42 44 44 43 42 31 24
219 182 172 239 243 292 274 308 330 324 297 275 270 258 260 266 243 242 228 224 227 229 223 219 213 206 200 198 193 190 187 182 186 181 144 119 104 102 95 84 64 46 44 52 48 48 42 33 24
224 208 211 241 309 309 285 244 307 279 280 285 271 270 259 267 247 250 222 218 223 223 222 221 211 205 200 199 199 194 182 173 176 142 130 112 112 103 98 78 61 53 44 41 35 38 41 34 22